Albion, NE

1:18 PM CST on January 18, 2017 (GMT -0600)
Albion Municipal

Weather History for KBVN - April, 2013

Change the Weather History Date:

Saturday, April 13, 2013

  Actual Average (KOFK) Record (KOFK)
Temperature  
Mean Temperature 41 °F -  
Max Temperature 55 °F 57 °F 90 °F (1936)
Min Temperature 27 °F 36 °F 15 °F (1950)
Degree Days  
Heating Degree Days 24    
Moisture  
Dew Point 34 °F    
Average Humidity 78    
Maximum Humidity 92    
Minimum Humidity 61    
Precipitation  
Precipitation 0.00 in - - ()
Sea Level Pressure  
Sea Level Pressure 29.82 in    
Wind  
Wind Speed 5 mph (SE)    
Max Wind Speed 24 mph    
Max Gust Speed 30 mph    
Visibility 10 miles    
Events      
Averages and records for this station are not official NWS values.
T = Trace of Precipitation, MM = Missing Value Source: NWS Daily Summary

Daily Weather History Graph

Daily Weather History Graph

Search for Another Location

Airport or City:

Trip Planner

Search our weather history database for the weather conditions in past years. The results will help you decide how hot, cold, wet, or windy it might be!

Date:

Astronomy

Apr. 13, 2013 Rise Set
Actual Time 6:54 AM CDT 8:11 PM CDT
Civil Twilight 6:26 AM CDT 8:39 PM CDT
Nautical Twilight 5:51 AM CDT 9:14 PM CDT
Astronomical Twilight 5:15 AM CDT 9:50 PM CDT
Moon 8:45 AM CDT (4/13) 11:38 PM CDT (4/13)
Length of Visible Light 14h 13m
Length of Day
13h 16m
Waxing Crescent, 10% of the Moon is Illuminated
Apr 13
Waxing Crescent
Apr 18
First Quarter
Apr 25
Full
May 2
Last Quarter
May 9
New

Hourly Weather History & Observations

Time (CDT) Temp. Windchill Dew Point Humidity Pressure Visibility Wind Dir Wind Speed Gust Speed Precip Events Conditions
12:15 AM 32.0 °F - 27.5 °F 83% 30.00 in 10.0 mi Calm Calm - N/A   Mostly Cloudy
12:35 AM 31.3 °F - 26.8 °F 83% 30.00 in 10.0 mi Calm Calm - N/A   Mostly Cloudy
12:55 AM 31.1 °F - 27.3 °F 86% 30.01 in 10.0 mi Calm Calm - N/A   Overcast
1:15 AM 31.1 °F - 28.0 °F 88% 30.00 in 10.0 mi Calm Calm - N/A   Overcast
1:35 AM 31.8 °F - 28.0 °F 86% 30.00 in 10.0 mi Calm Calm - N/A   Overcast
1:55 AM 32.0 °F - 27.9 °F 85% 30.00 in 10.0 mi Calm Calm - N/A   Overcast
2:15 AM 31.5 °F - 27.7 °F 86% 30.01 in 10.0 mi Calm Calm - N/A   Scattered Clouds
2:35 AM 30.9 °F - 27.9 °F 88% 30.01 in 10.0 mi Calm Calm - N/A   Mostly Cloudy
2:55 AM 31.5 °F - 27.9 °F 87% 30.00 in 10.0 mi Calm Calm - N/A   Mostly Cloudy
3:15 AM 31.5 °F - 27.9 °F 87% 29.99 in 10.0 mi Calm Calm - N/A   Mostly Cloudy
3:35 AM 30.6 °F - 27.5 °F 88% 29.98 in 10.0 mi Calm Calm - N/A   Scattered Clouds
3:55 AM 30.2 °F 26.7 °F 27.1 °F 88% 29.98 in 10.0 mi WSW 3.5 mph - N/A   Scattered Clouds
4:15 AM 29.5 °F - 26.2 °F 88% 29.98 in 10.0 mi Calm Calm - N/A   Scattered Clouds
4:35 AM 29.8 °F - 26.6 °F 88% 29.97 in 10.0 mi Calm Calm - N/A   Scattered Clouds
4:55 AM 30.2 °F - 26.8 °F 87% 29.97 in 10.0 mi Calm Calm - N/A   Clear
5:15 AM 30.0 °F - 26.6 °F 87% 29.97 in 10.0 mi Calm Calm - N/A   Clear
5:35 AM 29.3 °F - 26.2 °F 88% 29.96 in 10.0 mi Calm Calm - N/A   Clear
5:55 AM 29.7 °F 26.1 °F 26.6 °F 88% 29.96 in 10.0 mi SSW 3.5 mph - N/A   Clear
6:15 AM 28.2 °F - 25.7 °F 90% 29.95 in 10.0 mi Calm Calm - N/A   Clear
6:35 AM 27.5 °F - 25.3 °F 92% 29.96 in 7.0 mi Calm Calm - N/A   Clear
6:55 AM 28.8 °F - 26.4 °F 91% 29.96 in 7.0 mi Calm Calm - N/A   Clear
7:15 AM 29.3 °F - 26.6 °F 90% 29.96 in 10.0 mi Calm Calm - N/A   Clear
7:35 AM 30.9 °F - 27.9 °F 88% 29.95 in 10.0 mi Calm Calm - N/A   Clear
7:55 AM 30.7 °F - 27.5 °F 88% 29.95 in 10.0 mi Calm Calm - N/A   Clear
8:15 AM 31.1 °F 27.7 °F 28.4 °F 90% 29.95 in 10.0 mi ESE 3.5 mph - N/A   Clear
8:35 AM 32.0 °F 27.5 °F 29.1 °F 89% 29.95 in 10.0 mi SE 4.6 mph - N/A   Clear
8:55 AM 32.5 °F 24.8 °F 29.7 °F 89% 29.94 in 10.0 mi SSE 9.2 mph - N/A   Clear
9:15 AM 34.2 °F 28.2 °F 30.6 °F 87% 29.92 in 10.0 mi SSE 6.9 mph - N/A   Clear
9:35 AM 35.4 °F 30.5 °F 31.1 °F 84% 29.92 in 10.0 mi SSE 5.8 mph - N/A   Clear
9:55 AM 36.5 °F 31.0 °F 31.8 °F 83% 29.90 in 10.0 mi SSE 6.9 mph - N/A   Clear
10:15 AM 37.8 °F 31.3 °F 32.2 °F 80% 29.90 in 10.0 mi SSE 9.2 mph - N/A   Clear
10:35 AM 38.7 °F 32.9 °F 33.1 °F 80% 29.90 in 10.0 mi SSE 8.1 mph - N/A   Clear
10:55 AM 39.6 °F 32.5 °F 33.1 °F 78% 29.90 in 10.0 mi SSE 11.5 mph - N/A   Scattered Clouds
11:15 AM 40.3 °F 33.9 °F 33.8 °F 78% 29.89 in 10.0 mi South 10.4 mph - N/A   Mostly Cloudy
11:35 AM 41.0 °F 35.2 °F 34.2 °F 77% 29.89 in 10.0 mi South 9.2 mph - N/A   Overcast
11:55 AM 42.4 °F 37.0 °F 35.4 °F 76% 29.88 in 10.0 mi SSE 9.2 mph - N/A   Mostly Cloudy
12:15 PM 43.3 °F 37.7 °F 36.1 °F 76% 29.86 in 10.0 mi SE 10.4 mph - N/A   Overcast
12:35 PM 44.8 °F 39.0 °F 37.0 °F 74% 29.85 in 10.0 mi SE 11.5 mph - N/A   Overcast
12:55 PM 45.9 °F 40.8 °F 38.1 °F 74% 29.83 in 10.0 mi SE 10.4 mph - N/A   Overcast
1:15 PM 46.0 °F 41.0 °F 38.1 °F 74% 29.83 in 10.0 mi SSE 10.4 mph - N/A   Overcast
1:35 PM 46.6 °F - 38.8 °F 74% 29.81 in 10.0 mi SE 8.1 mph - N/A   Overcast
1:55 PM 47.3 °F - 39.4 °F 74% 29.79 in 10.0 mi SE 10.4 mph - N/A   Overcast
2:15 PM 47.5 °F - 39.4 °F 73% 29.77 in 10.0 mi SE 10.4 mph - N/A   Overcast
2:35 PM 48.6 °F - 40.3 °F 73% 29.76 in 10.0 mi SE 11.5 mph - N/A   Overcast
2:55 PM 50.0 °F - 39.7 °F 68% 29.74 in 10.0 mi SSE 13.8 mph - N/A   Overcast
3:15 PM 50.4 °F - 40.3 °F 68% 29.73 in 10.0 mi SE 13.8 mph - N/A   Overcast
3:35 PM 50.9 °F - 40.6 °F 68% 29.71 in 10.0 mi SE 12.7 mph - N/A   Overcast
3:55 PM 52.5 °F - 41.4 °F 66% 29.70 in 10.0 mi SE 15.0 mph 19.6 mph N/A   Overcast
4:15 PM 53.6 °F - 41.5 °F 64% 29.69 in 10.0 mi SE 16.1 mph - N/A   Overcast
4:35 PM 53.6 °F - 41.9 °F 65% 29.69 in 10.0 mi SE 13.8 mph - N/A   Overcast
4:55 PM 53.2 °F - 42.3 °F 66% 29.67 in 10.0 mi ESE 13.8 mph - N/A   Overcast
5:15 PM 54.5 °F - 42.1 °F 63% 29.66 in 10.0 mi ESE 18.4 mph - N/A   Overcast
5:35 PM 54.3 °F - 42.3 °F 64% 29.64 in 10.0 mi ESE 15.0 mph - N/A   Scattered Clouds
5:55 PM 55.4 °F - 43.7 °F 65% 29.63 in 10.0 mi SE 13.8 mph - N/A   Scattered Clouds
6:15 PM 55.6 °F - 42.4 °F 61% 29.63 in 10.0 mi SE 15.0 mph 18.4 mph N/A   Scattered Clouds
6:35 PM 55.0 °F - 42.8 °F 63% 29.63 in 10.0 mi ESE 15.0 mph - N/A   Scattered Clouds
6:55 PM 54.5 °F - 42.4 °F 64% 29.63 in 10.0 mi ESE 12.7 mph - N/A   Overcast
7:15 PM 53.8 °F - 42.1 °F 65% 29.64 in 10.0 mi East 9.2 mph - N/A   Overcast
7:35 PM 51.6 °F - 42.1 °F 70% 29.63 in 10.0 mi East 10.4 mph - N/A   Overcast
7:55 PM 50.9 °F - 41.4 °F 70% 29.63 in 10.0 mi East 10.4 mph - N/A   Overcast
8:15 PM 50.0 °F - 40.6 °F 70% 29.64 in 10.0 mi East 12.7 mph 17.3 mph N/A   Overcast
8:35 PM 49.1 °F - 40.6 °F 73% 29.64 in 10.0 mi East 11.5 mph - N/A   Overcast
8:55 PM 48.9 °F - 40.3 °F 72% 29.63 in 10.0 mi East 15.0 mph 18.4 mph N/A   Overcast
9:15 PM 48.4 °F - 40.1 °F 73% 29.63 in 10.0 mi East 13.8 mph 19.6 mph N/A   Overcast
9:35 PM 47.5 °F - 39.6 °F 74% 29.63 in 10.0 mi ESE 18.4 mph 25.3 mph N/A   Mostly Cloudy
9:55 PM 47.7 °F - 39.2 °F 72% 29.62 in 10.0 mi ESE 17.3 mph 25.3 mph N/A   Mostly Cloudy
10:15 PM 47.3 °F - 39.2 °F 73% 29.62 in 10.0 mi ESE 20.7 mph 27.6 mph N/A   Overcast
10:35 PM 46.6 °F - 38.3 °F 73% 29.62 in 10.0 mi ESE 24.2 mph 29.9 mph N/A   Mostly Cloudy
10:55 PM 46.4 °F 38.3 °F 38.3 °F 73% 29.61 in 10.0 mi ESE 23.0 mph 28.8 mph N/A   Mostly Cloudy
11:15 PM 45.9 °F 39.1 °F 37.8 °F 73% 29.59 in 10.0 mi ESE 16.1 mph 25.3 mph N/A   Mostly Cloudy
11:35 PM 45.5 °F 38.1 °F 37.6 °F 74% 29.56 in 10.0 mi ESE 18.4 mph 25.3 mph N/A   Mostly Cloudy
11:55 PM 44.8 °F 36.6 °F 37.6 °F 76% 29.57 in 10.0 mi ESE 20.7 mph 26.5 mph N/A   Mostly Cloudy